TimePST,TemperatureF,Dew PointF,Humidity,Sea Level PressureIn,VisibilityMPH,Wind Direction,Wind SpeedMPH,Gust SpeedMPH,PrecipitationIn,Events,Conditions,WindDirDegrees,DateUTC
12:52 AM,30.9,23.0,72,30.27,-9999.0,SE,8.1,-,N/A,,Unknown,140,2013-11-14 08:52:00
1:52 AM,28.0,21.9,78,30.26,-9999.0,SSE,3.5,-,N/A,,Unknown,160,2013-11-14 09:52:00
2:52 AM,26.1,21.9,84,30.22,-9999.0,South,6.9,-,N/A,,Unknown,180,2013-11-14 10:52:00
3:52 AM,28.9,24.1,82,30.19,-9999.0,SSW,5.8,-,N/A,,Unknown,210,2013-11-14 11:52:00
4:52 AM,28.9,24.1,82,30.18,-9999.0,SW,5.8,-,N/A,,Unknown,220,2013-11-14 12:52:00
5:52 AM,28.0,24.1,85,30.15,-9999.0,South,4.6,-,N/A,,Unknown,180,2013-11-14 13:52:00
6:52 AM,28.9,24.1,82,30.16,-9999.0,WSW,8.1,-,N/A,,Unknown,240,2013-11-14 14:52:00
7:52 AM,32.0,27.0,82,30.15,-9999.0,ESE,4.6,-,N/A,,Unknown,120,2013-11-14 15:52:00
8:52 AM,34.0,26.1,73,30.12,-9999.0,NE,5.8,-,N/A,,Unknown,50,2013-11-14 16:52:00
9:52 AM,43.0,28.0,56,30.07,-9999.0,Variable,3.5,-,N/A,,Unknown,0,2013-11-14 17:52:00
10:52 AM,46.9,28.0,48,30.03,-9999.0,NNE,3.5,-,N/A,,Unknown,20,2013-11-14 18:52:00
11:52 AM,50.0,28.0,43,29.97,-9999.0,Calm,Calm,-,N/A,,Unknown,0,2013-11-14 19:52:00
12:52 PM,53.1,28.0,38,29.92,-9999.0,Calm,Calm,-,N/A,,Unknown,0,2013-11-14 20:52:00
1:52 PM,57.9,28.0,32,29.89,-9999.0,WNW,9.2,-,N/A,,Unknown,300,2013-11-14 21:52:00
2:52 PM,55.0,27.0,34,29.90,-9999.0,North,12.7,-,N/A,,Unknown,10,2013-11-14 22:52:00
3:52 PM,50.0,27.0,41,29.91,-9999.0,NE,6.9,-,N/A,,Unknown,50,2013-11-14 23:52:00
4:52 PM,48.9,21.0,33,29.92,-9999.0,North,6.9,-,N/A,,Unknown,10,2013-11-15 00:52:00
5:52 PM,48.0,14.0,26,29.93,-9999.0,NNW,8.1,-,N/A,,Unknown,330,2013-11-15 01:52:00
6:52 PM,46.0,19.9,35,29.94,-9999.0,WNW,9.2,-,N/A,,Unknown,290,2013-11-15 02:52:00
7:52 PM,45.0,17.1,33,29.93,-9999.0,NNW,4.6,-,N/A,,Unknown,340,2013-11-15 03:52:00
8:52 PM,42.1,24.1,49,29.92,-9999.0,East,9.2,-,N/A,,Unknown,90,2013-11-15 04:52:00
9:52 PM,37.9,25.0,60,29.93,-9999.0,Calm,Calm,-,N/A,,Unknown,0,2013-11-15 05:52:00
10:52 PM,39.0,16.0,39,29.91,-9999.0,NNW,12.7,19.6,N/A,,Unknown,330,2013-11-15 06:52:00
11:52 PM,36.0,21.0,55,29.92,-9999.0,NW,10.4,-,N/A,,Unknown,320,2013-11-15 07:52:00